owner,sensor,date,latitude,longitude,vertical_datum,sea_water_practical_salinity,qcFlag 
LUMCON,ioos:station:LUMCON:103:1,2010-12-01T01:00:00Z,30.1889,-90.1683,-9999.0,2.398,1111122 
LUMCON,ioos:station:LUMCON:103:1,2010-12-01T02:00:00Z,30.1889,-90.1683,-9999.0,2.382,1111122 
LUMCON,ioos:station:LUMCON:103:1,2010-12-01T03:00:00Z,30.1889,-90.1683,-9999.0,2.38,1111122 
LUMCON,ioos:station:LUMCON:103:1,2010-12-01T04:00:00Z,30.1889,-90.1683,-9999.0,2.379,1111122 
LUMCON,ioos:station:LUMCON:103:1,2010-12-01T05:00:00Z,30.1889,-90.1683,-9999.0,2.377,1111122 
LUMCON,ioos:station:LUMCON:103:1,2010-12-01T06:00:00Z,30.1889,-90.1683,-9999.0,2.37,1111122 
LUMCON,ioos:station:LUMCON:103:1,2010-12-01T07:00:00Z,30.1889,-90.1683,-9999.0,2.378,1111122 
LUMCON,ioos:station:LUMCON:103:1,2010-12-01T08:00:00Z,30.1889,-90.1683,-9999.0,2.338,1111122 
LUMCON,ioos:station:LUMCON:103:1,2010-12-01T09:00:00Z,30.1889,-90.1683,-9999.0,2.13,1111122 
LUMCON,ioos:station:LUMCON:103:1,2010-12-01T10:00:00Z,30.1889,-90.1683,-9999.0,1.927,1111122 
LUMCON,ioos:station:LUMCON:103:1,2010-12-01T11:00:00Z,30.1889,-90.1683,-9999.0,1.882,1111122 
LUMCON,ioos:station:LUMCON:103:1,2010-12-01T12:00:00Z,30.1889,-90.1683,-9999.0,1.866,1111122 
LUMCON,ioos:station:LUMCON:103:1,2010-12-01T13:00:00Z,30.1889,-90.1683,-9999.0,1.884,1111122 
LUMCON,ioos:station:LUMCON:103:1,2010-12-01T14:00:00Z,30.1889,-90.1683,-9999.0,1.864,1111122 
LUMCON,ioos:station:LUMCON:103:1,2010-12-01T15:00:00Z,30.1889,-90.1683,-9999.0,1.746,1111122 
LUMCON,ioos:station:LUMCON:103:1,2010-12-01T16:00:00Z,30.1889,-90.1683,-9999.0,1.666,1111122 
LUMCON,ioos:station:LUMCON:103:1,2010-12-01T17:00:00Z,30.1889,-90.1683,-9999.0,1.656,1111122 
LUMCON,ioos:station:LUMCON:103:1,2010-12-01T18:00:00Z,30.1889,-90.1683,-9999.0,1.637,1111122 
LUMCON,ioos:station:LUMCON:103:1,2010-12-01T19:00:00Z,30.1889,-90.1683,-9999.0,1.557,1111122 
LUMCON,ioos:station:LUMCON:103:1,2010-12-01T20:00:00Z,30.1889,-90.1683,-9999.0,1.586,1111122 
LUMCON,ioos:station:LUMCON:103:1,2010-12-01T21:00:00Z,30.1889,-90.1683,-9999.0,1.5,1111122 
LUMCON,ioos:station:LUMCON:103:1,2010-12-01T22:00:00Z,30.1889,-90.1683,-9999.0,1.487,1111122 
LUMCON,ioos:station:LUMCON:103:1,2010-12-01T23:00:00Z,30.1889,-90.1683,-9999.0,1.461,1111122 
LUMCON,ioos:station:LUMCON:103:1,2010-12-01T24:00:00Z,30.1889,-90.1683,-9999.0,1.459,1111122 
LUMCON,ioos:station:LUMCON:103:1,2010-12-02T01:00:00Z,30.1889,-90.1683,-9999.0,1.507,1111122 
LUMCON,ioos:station:LUMCON:103:1,2010-12-02T02:00:00Z,30.1889,-90.1683,-9999.0,1.47,1111122 
LUMCON,ioos:station:LUMCON:103:1,2010-12-02T03:00:00Z,30.1889,-90.1683,-9999.0,1.452,1111122 
LUMCON,ioos:station:LUMCON:103:1,2010-12-02T04:00:00Z,30.1889,-90.1683,-9999.0,1.452,1111122 
LUMCON,ioos:station:LUMCON:103:1,2010-12-02T05:00:00Z,30.1889,-90.1683,-9999.0,1.448,1111122 
LUMCON,ioos:station:LUMCON:103:1,2010-12-02T06:00:00Z,30.1889,-90.1683,-9999.0,1.449,1111122 
LUMCON,ioos:station:LUMCON:103:1,2010-12-02T07:00:00Z,30.1889,-90.1683,-9999.0,1.571,1111122 
LUMCON,ioos:station:LUMCON:103:1,2010-12-02T08:00:00Z,30.1889,-90.1683,-9999.0,1.805,1111122 
LUMCON,ioos:station:LUMCON:103:1,2010-12-02T09:00:00Z,30.1889,-90.1683,-9999.0,1.787,1111122 
LUMCON,ioos:station:LUMCON:103:1,2010-12-02T10:00:00Z,30.1889,-90.1683,-9999.0,1.917,1111122 
LUMCON,ioos:station:LUMCON:103:1,2010-12-02T11:00:00Z,30.1889,-90.1683,-9999.0,2.07,1111122 
LUMCON,ioos:station:LUMCON:103:1,2010-12-02T12:00:00Z,30.1889,-90.1683,-9999.0,1.935,1111122 
LUMCON,ioos:station:LUMCON:103:1,2010-12-02T13:00:00Z,30.1889,-90.1683,-9999.0,2.172,1111122 
LUMCON,ioos:station:LUMCON:103:1,2010-12-02T14:00:00Z,30.1889,-90.1683,-9999.0,2.618,1111122 
LUMCON,ioos:station:LUMCON:103:1,2010-12-02T15:00:00Z,30.1889,-90.1683,-9999.0,2.212,1111122 
LUMCON,ioos:station:LUMCON:103:1,2010-12-02T16:00:00Z,30.1889,-90.1683,-9999.0,2.172,1111122 
LUMCON,ioos:station:LUMCON:103:1,2010-12-02T17:00:00Z,30.1889,-90.1683,-9999.0,1.967,1111122 
LUMCON,ioos:station:LUMCON:103:1,2010-12-02T18:00:00Z,30.1889,-90.1683,-9999.0,1.574,1111122 
LUMCON,ioos:station:LUMCON:103:1,2010-12-02T19:00:00Z,30.1889,-90.1683,-9999.0,1.761,1111122 
LUMCON,ioos:station:LUMCON:103:1,2010-12-02T20:00:00Z,30.1889,-90.1683,-9999.0,1.651,1111122 
LUMCON,ioos:station:LUMCON:103:1,2010-12-02T21:00:00Z,30.1889,-90.1683,-9999.0,1.534,1111122 
LUMCON,ioos:station:LUMCON:103:1,2010-12-02T22:00:00Z,30.1889,-90.1683,-9999.0,1.5,1111122 
LUMCON,ioos:station:LUMCON:103:1,2010-12-02T23:00:00Z,30.1889,-90.1683,-9999.0,1.539,1111122 
LUMCON,ioos:station:LUMCON:103:1,2010-12-02T24:00:00Z,30.1889,-90.1683,-9999.0,1.617,1111122 
LUMCON,ioos:station:LUMCON:103:1,2010-12-03T01:00:00Z,30.1889,-90.1683,-9999.0,1.604,1111122 
LUMCON,ioos:station:LUMCON:103:1,2010-12-03T02:00:00Z,30.1889,-90.1683,-9999.0,1.532,1111122 
LUMCON,ioos:station:LUMCON:103:1,2010-12-03T03:00:00Z,30.1889,-90.1683,-9999.0,1.436,1111122 
LUMCON,ioos:station:LUMCON:103:1,2010-12-03T04:00:00Z,30.1889,-90.1683,-9999.0,1.403,1111122 
LUMCON,ioos:station:LUMCON:103:1,2010-12-03T05:00:00Z,30.1889,-90.1683,-9999.0,1.437,1111122 
LUMCON,ioos:station:LUMCON:103:1,2010-12-03T06:00:00Z,30.1889,-90.1683,-9999.0,1.423,1111122 
LUMCON,ioos:station:LUMCON:103:1,2010-12-03T07:00:00Z,30.1889,-90.1683,-9999.0,1.399,1111122 
LUMCON,ioos:station:LUMCON:103:1,2010-12-03T08:00:00Z,30.1889,-90.1683,-9999.0,1.419,1111122 
LUMCON,ioos:station:LUMCON:103:1,2010-12-03T09:00:00Z,30.1889,-90.1683,-9999.0,1.449,1111122 
LUMCON,ioos:station:LUMCON:103:1,2010-12-03T10:00:00Z,30.1889,-90.1683,-9999.0,1.474,1111122 
LUMCON,ioos:station:LUMCON:103:1,2010-12-03T11:00:00Z,30.1889,-90.1683,-9999.0,1.545,1111122 
LUMCON,ioos:station:LUMCON:103:1,2010-12-03T12:00:00Z,30.1889,-90.1683,-9999.0,1.63,1111122 
LUMCON,ioos:station:LUMCON:103:1,2010-12-03T13:00:00Z,30.1889,-90.1683,-9999.0,1.625,1111122 
LUMCON,ioos:station:LUMCON:103:1,2010-12-03T14:00:00Z,30.1889,-90.1683,-9999.0,1.608,1111122 
LUMCON,ioos:station:LUMCON:103:1,2010-12-03T15:00:00Z,30.1889,-90.1683,-9999.0,1.612,1111122 
LUMCON,ioos:station:LUMCON:103:1,2010-12-03T16:00:00Z,30.1889,-90.1683,-9999.0,1.628,1111122 
LUMCON,ioos:station:LUMCON:103:1,2010-12-03T17:00:00Z,30.1889,-90.1683,-9999.0,1.648,1111122 
LUMCON,ioos:station:LUMCON:103:1,2010-12-03T18:00:00Z,30.1889,-90.1683,-9999.0,1.629,1111122 
LUMCON,ioos:station:LUMCON:103:1,2010-12-03T19:00:00Z,30.1889,-90.1683,-9999.0,1.611,1111122 
LUMCON,ioos:station:LUMCON:103:1,2010-12-03T20:00:00Z,30.1889,-90.1683,-9999.0,1.591,1111122 
LUMCON,ioos:station:LUMCON:103:1,2010-12-03T21:00:00Z,30.1889,-90.1683,-9999.0,1.573,1111122 
LUMCON,ioos:station:LUMCON:103:1,2010-12-03T22:00:00Z,30.1889,-90.1683,-9999.0,1.549,1111122 
LUMCON,ioos:station:LUMCON:103:1,2010-12-03T23:00:00Z,30.1889,-90.1683,-9999.0,1.5,1111122 
LUMCON,ioos:station:LUMCON:103:1,2010-12-03T24:00:00Z,30.1889,-90.1683,-9999.0,1.487,1111122 
LUMCON,ioos:station:LUMCON:103:1,2010-12-04T01:00:00Z,30.1889,-90.1683,-9999.0,1.477,1111122 
LUMCON,ioos:station:LUMCON:103:1,2010-12-04T02:00:00Z,30.1889,-90.1683,-9999.0,1.472,1111122 
LUMCON,ioos:station:LUMCON:103:1,2010-12-04T03:00:00Z,30.1889,-90.1683,-9999.0,1.505,1111122 
LUMCON,ioos:station:LUMCON:103:1,2010-12-04T04:00:00Z,30.1889,-90.1683,-9999.0,1.538,1111122 
LUMCON,ioos:station:LUMCON:103:1,2010-12-04T05:00:00Z,30.1889,-90.1683,-9999.0,1.54,1111122 
LUMCON,ioos:station:LUMCON:103:1,2010-12-04T06:00:00Z,30.1889,-90.1683,-9999.0,1.547,1111122 
LUMCON,ioos:station:LUMCON:103:1,2010-12-04T07:00:00Z,30.1889,-90.1683,-9999.0,1.579,1111122 
LUMCON,ioos:station:LUMCON:103:1,2010-12-04T08:00:00Z,30.1889,-90.1683,-9999.0,1.626,1111122 
LUMCON,ioos:station:LUMCON:103:1,2010-12-04T09:00:00Z,30.1889,-90.1683,-9999.0,1.672,1111122 
LUMCON,ioos:station:LUMCON:103:1,2010-12-04T10:00:00Z,30.1889,-90.1683,-9999.0,1.715,1111122 
LUMCON,ioos:station:LUMCON:103:1,2010-12-04T11:00:00Z,30.1889,-90.1683,-9999.0,1.73,1111122 
LUMCON,ioos:station:LUMCON:103:1,2010-12-04T12:00:00Z,30.1889,-90.1683,-9999.0,1.72,1111122 
LUMCON,ioos:station:LUMCON:103:1,2010-12-04T13:00:00Z,30.1889,-90.1683,-9999.0,1.66,1111122 
LUMCON,ioos:station:LUMCON:103:1,2010-12-04T14:00:00Z,30.1889,-90.1683,-9999.0,1.713,1111122 
LUMCON,ioos:station:LUMCON:103:1,2010-12-04T15:00:00Z,30.1889,-90.1683,-9999.0,1.736,1111122 
LUMCON,ioos:station:LUMCON:103:1,2010-12-04T16:00:00Z,30.1889,-90.1683,-9999.0,1.726,1111122 
LUMCON,ioos:station:LUMCON:103:1,2010-12-04T17:00:00Z,30.1889,-90.1683,-9999.0,1.726,1111122 
LUMCON,ioos:station:LUMCON:103:1,2010-12-04T18:00:00Z,30.1889,-90.1683,-9999.0,1.674,1111122 
LUMCON,ioos:station:LUMCON:103:1,2010-12-04T19:00:00Z,30.1889,-90.1683,-9999.0,1.521,1111122 
LUMCON,ioos:station:LUMCON:103:1,2010-12-04T20:00:00Z,30.1889,-90.1683,-9999.0,1.581,1111122 
LUMCON,ioos:station:LUMCON:103:1,2010-12-04T21:00:00Z,30.1889,-90.1683,-9999.0,1.621,1111122 
LUMCON,ioos:station:LUMCON:103:1,2010-12-04T22:00:00Z,30.1889,-90.1683,-9999.0,1.726,1111122 
LUMCON,ioos:station:LUMCON:103:1,2010-12-04T23:00:00Z,30.1889,-90.1683,-9999.0,1.775,1111122 
LUMCON,ioos:station:LUMCON:103:1,2010-12-04T24:00:00Z,30.1889,-90.1683,-9999.0,1.803,1111122 
LUMCON,ioos:station:LUMCON:103:1,2010-12-05T01:00:00Z,30.1889,-90.1683,-9999.0,1.895,1111122 
LUMCON,ioos:station:LUMCON:103:1,2010-12-05T02:00:00Z,30.1889,-90.1683,-9999.0,1.994,1111122 
LUMCON,ioos:station:LUMCON:103:1,2010-12-05T03:00:00Z,30.1889,-90.1683,-9999.0,2.055,1111122 
LUMCON,ioos:station:LUMCON:103:1,2010-12-05T04:00:00Z,30.1889,-90.1683,-9999.0,2.046,1111122 
LUMCON,ioos:station:LUMCON:103:1,2010-12-05T05:00:00Z,30.1889,-90.1683,-9999.0,2.027,1111122 
LUMCON,ioos:station:LUMCON:103:1,2010-12-05T06:00:00Z,30.1889,-90.1683,-9999.0,1.967,1111122 
LUMCON,ioos:station:LUMCON:103:1,2010-12-05T07:00:00Z,30.1889,-90.1683,-9999.0,2.165,1111122 
LUMCON,ioos:station:LUMCON:103:1,2010-12-05T08:00:00Z,30.1889,-90.1683,-9999.0,2.254,1111122 
LUMCON,ioos:station:LUMCON:103:1,2010-12-05T09:00:00Z,30.1889,-90.1683,-9999.0,2.071,1111122 
LUMCON,ioos:station:LUMCON:103:1,2010-12-05T10:00:00Z,30.1889,-90.1683,-9999.0,2.063,1111122 
LUMCON,ioos:station:LUMCON:103:1,2010-12-05T11:00:00Z,30.1889,-90.1683,-9999.0,2.073,1111122 
LUMCON,ioos:station:LUMCON:103:1,2010-12-05T12:00:00Z,30.1889,-90.1683,-9999.0,2.115,1111122 
LUMCON,ioos:station:LUMCON:103:1,2010-12-05T13:00:00Z,30.1889,-90.1683,-9999.0,2.141,1111122 
LUMCON,ioos:station:LUMCON:103:1,2010-12-05T14:00:00Z,30.1889,-90.1683,-9999.0,2.15,1111122 
LUMCON,ioos:station:LUMCON:103:1,2010-12-05T15:00:00Z,30.1889,-90.1683,-9999.0,2.17,1111122 
LUMCON,ioos:station:LUMCON:103:1,2010-12-05T16:00:00Z,30.1889,-90.1683,-9999.0,2.18,1111122 
LUMCON,ioos:station:LUMCON:103:1,2010-12-05T17:00:00Z,30.1889,-90.1683,-9999.0,2.18,1111122 
LUMCON,ioos:station:LUMCON:103:1,2010-12-05T18:00:00Z,30.1889,-90.1683,-9999.0,2.18,1111122 
LUMCON,ioos:station:LUMCON:103:1,2010-12-05T19:00:00Z,30.1889,-90.1683,-9999.0,2.18,1111122 
LUMCON,ioos:station:LUMCON:103:1,2010-12-05T20:00:00Z,30.1889,-90.1683,-9999.0,2.18,1111122 
LUMCON,ioos:station:LUMCON:103:1,2010-12-05T21:00:00Z,30.1889,-90.1683,-9999.0,2.189,1111122 
LUMCON,ioos:station:LUMCON:103:1,2010-12-05T22:00:00Z,30.1889,-90.1683,-9999.0,2.015,1111122 
LUMCON,ioos:station:LUMCON:103:1,2010-12-05T23:00:00Z,30.1889,-90.1683,-9999.0,1.938,1111122 
LUMCON,ioos:station:LUMCON:103:1,2010-12-05T24:00:00Z,30.1889,-90.1683,-9999.0,1.807,1111122 
LUMCON,ioos:station:LUMCON:103:1,2010-12-06T01:00:00Z,30.1889,-90.1683,-9999.0,1.609,1111122 
LUMCON,ioos:station:LUMCON:103:1,2010-12-06T02:00:00Z,30.1889,-90.1683,-9999.0,1.468,1111122 
LUMCON,ioos:station:LUMCON:103:1,2010-12-06T03:00:00Z,30.1889,-90.1683,-9999.0,1.343,1111122 
LUMCON,ioos:station:LUMCON:103:1,2010-12-06T04:00:00Z,30.1889,-90.1683,-9999.0,1.24,1111122 
LUMCON,ioos:station:LUMCON:103:1,2010-12-06T05:00:00Z,30.1889,-90.1683,-9999.0,1.446,1111122 
LUMCON,ioos:station:LUMCON:103:1,2010-12-06T06:00:00Z,30.1889,-90.1683,-9999.0,1.639,1111122 
LUMCON,ioos:station:LUMCON:103:1,2010-12-06T07:00:00Z,30.1889,-90.1683,-9999.0,1.759,1111122 
LUMCON,ioos:station:LUMCON:103:1,2010-12-06T08:00:00Z,30.1889,-90.1683,-9999.0,1.917,1111122 
LUMCON,ioos:station:LUMCON:103:1,2010-12-06T09:00:00Z,30.1889,-90.1683,-9999.0,1.945,1111122 
LUMCON,ioos:station:LUMCON:103:1,2010-12-06T10:00:00Z,30.1889,-90.1683,-9999.0,1.829,1111122 
LUMCON,ioos:station:LUMCON:103:1,2010-12-06T11:00:00Z,30.1889,-90.1683,-9999.0,1.761,1111122 
LUMCON,ioos:station:LUMCON:103:1,2010-12-06T12:00:00Z,30.1889,-90.1683,-9999.0,1.633,1111122 
LUMCON,ioos:station:LUMCON:103:1,2010-12-06T13:00:00Z,30.1889,-90.1683,-9999.0,1.581,1111122 
LUMCON,ioos:station:LUMCON:103:1,2010-12-06T14:00:00Z,30.1889,-90.1683,-9999.0,1.534,1111122 
LUMCON,ioos:station:LUMCON:103:1,2010-12-06T15:00:00Z,30.1889,-90.1683,-9999.0,1.488,1111122 
LUMCON,ioos:station:LUMCON:103:1,2010-12-06T16:00:00Z,30.1889,-90.1683,-9999.0,1.526,1111122 
LUMCON,ioos:station:LUMCON:103:1,2010-12-06T17:00:00Z,30.1889,-90.1683,-9999.0,1.568,1111122 
LUMCON,ioos:station:LUMCON:103:1,2010-12-06T18:00:00Z,30.1889,-90.1683,-9999.0,1.58,1111122 
LUMCON,ioos:station:LUMCON:103:1,2010-12-06T19:00:00Z,30.1889,-90.1683,-9999.0,1.669,1111122 
LUMCON,ioos:station:LUMCON:103:1,2010-12-06T20:00:00Z,30.1889,-90.1683,-9999.0,1.663,1111122 
LUMCON,ioos:station:LUMCON:103:1,2010-12-06T21:00:00Z,30.1889,-90.1683,-9999.0,1.697,1111122 
LUMCON,ioos:station:LUMCON:103:1,2010-12-06T22:00:00Z,30.1889,-90.1683,-9999.0,1.725,1111122 
LUMCON,ioos:station:LUMCON:103:1,2010-12-06T23:00:00Z,30.1889,-90.1683,-9999.0,1.716,1111122 
LUMCON,ioos:station:LUMCON:103:1,2010-12-06T24:00:00Z,30.1889,-90.1683,-9999.0,1.702,1111122 
LUMCON,ioos:station:LUMCON:103:1,2010-12-07T01:00:00Z,30.1889,-90.1683,-9999.0,1.646,1111122 
LUMCON,ioos:station:LUMCON:103:1,2010-12-07T02:00:00Z,30.1889,-90.1683,-9999.0,1.613,1111122 
LUMCON,ioos:station:LUMCON:103:1,2010-12-07T03:00:00Z,30.1889,-90.1683,-9999.0,1.626,1111122 
LUMCON,ioos:station:LUMCON:103:1,2010-12-07T04:00:00Z,30.1889,-90.1683,-9999.0,1.592,1111122 
LUMCON,ioos:station:LUMCON:103:1,2010-12-07T05:00:00Z,30.1889,-90.1683,-9999.0,1.92,1111122 
LUMCON,ioos:station:LUMCON:103:1,2010-12-07T06:00:00Z,30.1889,-90.1683,-9999.0,2.137,1111122 
LUMCON,ioos:station:LUMCON:103:1,2010-12-07T07:00:00Z,30.1889,-90.1683,-9999.0,2.218,1111122 
LUMCON,ioos:station:LUMCON:103:1,2010-12-07T08:00:00Z,30.1889,-90.1683,-9999.0,2.157,1111122 
LUMCON,ioos:station:LUMCON:103:1,2010-12-07T09:00:00Z,30.1889,-90.1683,-9999.0,2.205,1111122 
LUMCON,ioos:station:LUMCON:103:1,2010-12-07T10:00:00Z,30.1889,-90.1683,-9999.0,2.133,1111122 
LUMCON,ioos:station:LUMCON:103:1,2010-12-07T11:00:00Z,30.1889,-90.1683,-9999.0,1.994,1111122 
LUMCON,ioos:station:LUMCON:103:1,2010-12-07T12:00:00Z,30.1889,-90.1683,-9999.0,1.981,1111122 
LUMCON,ioos:station:LUMCON:103:1,2010-12-07T13:00:00Z,30.1889,-90.1683,-9999.0,1.932,1111122 
LUMCON,ioos:station:LUMCON:103:1,2010-12-07T14:00:00Z,30.1889,-90.1683,-9999.0,1.907,1111122 
LUMCON,ioos:station:LUMCON:103:1,2010-12-07T15:00:00Z,30.1889,-90.1683,-9999.0,1.884,1111122 
LUMCON,ioos:station:LUMCON:103:1,2010-12-07T16:00:00Z,30.1889,-90.1683,-9999.0,1.896,1111122 
LUMCON,ioos:station:LUMCON:103:1,2010-12-07T17:00:00Z,30.1889,-90.1683,-9999.0,2.027,1111122 
LUMCON,ioos:station:LUMCON:103:1,2010-12-07T18:00:00Z,30.1889,-90.1683,-9999.0,2.01,1111122 
LUMCON,ioos:station:LUMCON:103:1,2010-12-07T19:00:00Z,30.1889,-90.1683,-9999.0,1.897,1111122 
LUMCON,ioos:station:LUMCON:103:1,2010-12-07T20:00:00Z,30.1889,-90.1683,-9999.0,1.918,1111122 
LUMCON,ioos:station:LUMCON:103:1,2010-12-07T21:00:00Z,30.1889,-90.1683,-9999.0,1.883,1111122 
LUMCON,ioos:station:LUMCON:103:1,2010-12-07T22:00:00Z,30.1889,-90.1683,-9999.0,1.834,1111122 
LUMCON,ioos:station:LUMCON:103:1,2010-12-07T23:00:00Z,30.1889,-90.1683,-9999.0,1.682,1111122 
LUMCON,ioos:station:LUMCON:103:1,2010-12-07T24:00:00Z,30.1889,-90.1683,-9999.0,1.478,1111122 
LUMCON,ioos:station:LUMCON:103:1,2010-12-08T01:00:00Z,30.1889,-90.1683,-9999.0,1.462,1111122 
LUMCON,ioos:station:LUMCON:103:1,2010-12-08T02:00:00Z,30.1889,-90.1683,-9999.0,1.453,1111122 
LUMCON,ioos:station:LUMCON:103:1,2010-12-08T03:00:00Z,30.1889,-90.1683,-9999.0,1.949,1111122 
LUMCON,ioos:station:LUMCON:103:1,2010-12-08T04:00:00Z,30.1889,-90.1683,-9999.0,2.2,1111122 
LUMCON,ioos:station:LUMCON:103:1,2010-12-08T05:00:00Z,30.1889,-90.1683,-9999.0,2.218,1111122 
LUMCON,ioos:station:LUMCON:103:1,2010-12-08T06:00:00Z,30.1889,-90.1683,-9999.0,2.118,1111122 
LUMCON,ioos:station:LUMCON:103:1,2010-12-08T07:00:00Z,30.1889,-90.1683,-9999.0,1.973,1111122 
LUMCON,ioos:station:LUMCON:103:1,2010-12-08T08:00:00Z,30.1889,-90.1683,-9999.0,2.021,1111122 
LUMCON,ioos:station:LUMCON:103:1,2010-12-08T09:00:00Z,30.1889,-90.1683,-9999.0,1.959,1111122 
LUMCON,ioos:station:LUMCON:103:1,2010-12-08T10:00:00Z,30.1889,-90.1683,-9999.0,1.93,1111122 
LUMCON,ioos:station:LUMCON:103:1,2010-12-08T11:00:00Z,30.1889,-90.1683,-9999.0,1.884,1111122 
LUMCON,ioos:station:LUMCON:103:1,2010-12-08T12:00:00Z,30.1889,-90.1683,-9999.0,1.897,1111122 
LUMCON,ioos:station:LUMCON:103:1,2010-12-08T13:00:00Z,30.1889,-90.1683,-9999.0,1.879,1111122 
LUMCON,ioos:station:LUMCON:103:1,2010-12-08T14:00:00Z,30.1889,-90.1683,-9999.0,1.813,1111122 
LUMCON,ioos:station:LUMCON:103:1,2010-12-08T15:00:00Z,30.1889,-90.1683,-9999.0,1.809,1111122 
LUMCON,ioos:station:LUMCON:103:1,2010-12-08T16:00:00Z,30.1889,-90.1683,-9999.0,1.81,1111122 
LUMCON,ioos:station:LUMCON:103:1,2010-12-08T17:00:00Z,30.1889,-90.1683,-9999.0,1.826,1111122 
LUMCON,ioos:station:LUMCON:103:1,2010-12-08T18:00:00Z,30.1889,-90.1683,-9999.0,1.86,1111122 
LUMCON,ioos:station:LUMCON:103:1,2010-12-08T19:00:00Z,30.1889,-90.1683,-9999.0,1.878,1111122 
LUMCON,ioos:station:LUMCON:103:1,2010-12-08T20:00:00Z,30.1889,-90.1683,-9999.0,1.89,1111122 
LUMCON,ioos:station:LUMCON:103:1,2010-12-08T21:00:00Z,30.1889,-90.1683,-9999.0,1.862,1111122 
LUMCON,ioos:station:LUMCON:103:1,2010-12-08T22:00:00Z,30.1889,-90.1683,-9999.0,1.82,1111122 
LUMCON,ioos:station:LUMCON:103:1,2010-12-08T24:00:00Z,30.1889,-90.1683,-9999.0,1.842,1111122 
LUMCON,ioos:station:LUMCON:103:1,2010-12-09T01:00:00Z,30.1889,-90.1683,-9999.0,1.85,1111122 
LUMCON,ioos:station:LUMCON:103:1,2010-12-09T02:00:00Z,30.1889,-90.1683,-9999.0,1.823,1111122 
LUMCON,ioos:station:LUMCON:103:1,2010-12-09T03:00:00Z,30.1889,-90.1683,-9999.0,1.76,1111122 
LUMCON,ioos:station:LUMCON:103:1,2010-12-09T04:00:00Z,30.1889,-90.1683,-9999.0,1.573,1111122 
LUMCON,ioos:station:LUMCON:103:1,2010-12-09T05:00:00Z,30.1889,-90.1683,-9999.0,1.566,1111122 
LUMCON,ioos:station:LUMCON:103:1,2010-12-09T06:00:00Z,30.1889,-90.1683,-9999.0,1.635,1111122 
LUMCON,ioos:station:LUMCON:103:1,2010-12-09T07:00:00Z,30.1889,-90.1683,-9999.0,1.757,1111122 
LUMCON,ioos:station:LUMCON:103:1,2010-12-09T08:00:00Z,30.1889,-90.1683,-9999.0,1.825,1111122 
LUMCON,ioos:station:LUMCON:103:1,2010-12-09T09:00:00Z,30.1889,-90.1683,-9999.0,1.889,1111122 
LUMCON,ioos:station:LUMCON:103:1,2010-12-09T10:00:00Z,30.1889,-90.1683,-9999.0,1.903,1111122 
LUMCON,ioos:station:LUMCON:103:1,2010-12-09T11:00:00Z,30.1889,-90.1683,-9999.0,1.877,1111122 
LUMCON,ioos:station:LUMCON:103:1,2010-12-09T12:00:00Z,30.1889,-90.1683,-9999.0,1.848,1111122 
LUMCON,ioos:station:LUMCON:103:1,2010-12-09T13:00:00Z,30.1889,-90.1683,-9999.0,1.789,1111122 
LUMCON,ioos:station:LUMCON:103:1,2010-12-09T14:00:00Z,30.1889,-90.1683,-9999.0,1.719,1111122 
LUMCON,ioos:station:LUMCON:103:1,2010-12-09T15:00:00Z,30.1889,-90.1683,-9999.0,1.705,1111122 
LUMCON,ioos:station:LUMCON:103:1,2010-12-09T16:00:00Z,30.1889,-90.1683,-9999.0,1.701,1111122 
LUMCON,ioos:station:LUMCON:103:1,2010-12-09T17:00:00Z,30.1889,-90.1683,-9999.0,1.723,1111122 
LUMCON,ioos:station:LUMCON:103:1,2010-12-09T18:00:00Z,30.1889,-90.1683,-9999.0,1.739,1111122 
LUMCON,ioos:station:LUMCON:103:1,2010-12-09T19:00:00Z,30.1889,-90.1683,-9999.0,1.758,1111122 
LUMCON,ioos:station:LUMCON:103:1,2010-12-09T20:00:00Z,30.1889,-90.1683,-9999.0,1.795,1111122 
LUMCON,ioos:station:LUMCON:103:1,2010-12-09T21:00:00Z,30.1889,-90.1683,-9999.0,1.831,1111122 
LUMCON,ioos:station:LUMCON:103:1,2010-12-09T22:00:00Z,30.1889,-90.1683,-9999.0,1.829,1111122 
LUMCON,ioos:station:LUMCON:103:1,2010-12-09T23:00:00Z,30.1889,-90.1683,-9999.0,1.841,1111122 
LUMCON,ioos:station:LUMCON:103:1,2010-12-09T24:00:00Z,30.1889,-90.1683,-9999.0,1.852,1111122 
LUMCON,ioos:station:LUMCON:103:1,2010-12-10T01:00:00Z,30.1889,-90.1683,-9999.0,1.868,1111122 
LUMCON,ioos:station:LUMCON:103:1,2010-12-10T02:00:00Z,30.1889,-90.1683,-9999.0,1.948,1111122 
LUMCON,ioos:station:LUMCON:103:1,2010-12-10T03:00:00Z,30.1889,-90.1683,-9999.0,2.001,1111122 
LUMCON,ioos:station:LUMCON:103:1,2010-12-10T04:00:00Z,30.1889,-90.1683,-9999.0,2.032,1111122 
LUMCON,ioos:station:LUMCON:103:1,2010-12-10T05:00:00Z,30.1889,-90.1683,-9999.0,2.107,1111122 
LUMCON,ioos:station:LUMCON:103:1,2010-12-10T06:00:00Z,30.1889,-90.1683,-9999.0,2.268,1111122 
LUMCON,ioos:station:LUMCON:103:1,2010-12-10T07:00:00Z,30.1889,-90.1683,-9999.0,2.432,1111122 
LUMCON,ioos:station:LUMCON:103:1,2010-12-10T08:00:00Z,30.1889,-90.1683,-9999.0,2.42,1111122 
LUMCON,ioos:station:LUMCON:103:1,2010-12-10T09:00:00Z,30.1889,-90.1683,-9999.0,2.409,1111122 
LUMCON,ioos:station:LUMCON:103:1,2010-12-10T10:00:00Z,30.1889,-90.1683,-9999.0,2.369,1111122 
LUMCON,ioos:station:LUMCON:103:1,2010-12-10T11:00:00Z,30.1889,-90.1683,-9999.0,2.263,1111122 
LUMCON,ioos:station:LUMCON:103:1,2010-12-10T12:00:00Z,30.1889,-90.1683,-9999.0,2.263,1111122 
LUMCON,ioos:station:LUMCON:103:1,2010-12-10T13:00:00Z,30.1889,-90.1683,-9999.0,2.223,1111122 
LUMCON,ioos:station:LUMCON:103:1,2010-12-10T14:00:00Z,30.1889,-90.1683,-9999.0,2.232,1111122 
LUMCON,ioos:station:LUMCON:103:1,2010-12-10T15:00:00Z,30.1889,-90.1683,-9999.0,2.193,1111122 
LUMCON,ioos:station:LUMCON:103:1,2010-12-10T16:00:00Z,30.1889,-90.1683,-9999.0,2.164,1111122 
LUMCON,ioos:station:LUMCON:103:1,2010-12-10T17:00:00Z,30.1889,-90.1683,-9999.0,2.156,1111122 
LUMCON,ioos:station:LUMCON:103:1,2010-12-10T18:00:00Z,30.1889,-90.1683,-9999.0,2.134,1111122 
LUMCON,ioos:station:LUMCON:103:1,2010-12-10T19:00:00Z,30.1889,-90.1683,-9999.0,2.069,1111122 
LUMCON,ioos:station:LUMCON:103:1,2010-12-10T20:00:00Z,30.1889,-90.1683,-9999.0,2.076,1111122 
LUMCON,ioos:station:LUMCON:103:1,2010-12-10T21:00:00Z,30.1889,-90.1683,-9999.0,2.088,1111122 
LUMCON,ioos:station:LUMCON:103:1,2010-12-10T22:00:00Z,30.1889,-90.1683,-9999.0,2.055,1111122 
LUMCON,ioos:station:LUMCON:103:1,2010-12-10T23:00:00Z,30.1889,-90.1683,-9999.0,1.967,1111122 
LUMCON,ioos:station:LUMCON:103:1,2010-12-10T24:00:00Z,30.1889,-90.1683,-9999.0,1.9,1111122 
LUMCON,ioos:station:LUMCON:103:1,2010-12-11T01:00:00Z,30.1889,-90.1683,-9999.0,1.788,1111122 
LUMCON,ioos:station:LUMCON:103:1,2010-12-11T02:00:00Z,30.1889,-90.1683,-9999.0,1.689,1111122 
LUMCON,ioos:station:LUMCON:103:1,2010-12-11T03:00:00Z,30.1889,-90.1683,-9999.0,1.727,1111122 
LUMCON,ioos:station:LUMCON:103:1,2010-12-11T04:00:00Z,30.1889,-90.1683,-9999.0,1.839,1111122 
LUMCON,ioos:station:LUMCON:103:1,2010-12-11T05:00:00Z,30.1889,-90.1683,-9999.0,1.854,1111122 
LUMCON,ioos:station:LUMCON:103:1,2010-12-11T06:00:00Z,30.1889,-90.1683,-9999.0,1.834,1111122 
LUMCON,ioos:station:LUMCON:103:1,2010-12-11T07:00:00Z,30.1889,-90.1683,-9999.0,1.822,1111122 
LUMCON,ioos:station:LUMCON:103:1,2010-12-11T08:00:00Z,30.1889,-90.1683,-9999.0,1.817,1111122 
LUMCON,ioos:station:LUMCON:103:1,2010-12-11T09:00:00Z,30.1889,-90.1683,-9999.0,1.855,1111122 
LUMCON,ioos:station:LUMCON:103:1,2010-12-11T10:00:00Z,30.1889,-90.1683,-9999.0,1.931,1111122 
LUMCON,ioos:station:LUMCON:103:1,2010-12-11T11:00:00Z,30.1889,-90.1683,-9999.0,1.946,1111122 
LUMCON,ioos:station:LUMCON:103:1,2010-12-11T12:00:00Z,30.1889,-90.1683,-9999.0,1.948,1111122 
LUMCON,ioos:station:LUMCON:103:1,2010-12-11T13:00:00Z,30.1889,-90.1683,-9999.0,1.953,1111122 
LUMCON,ioos:station:LUMCON:103:1,2010-12-11T14:00:00Z,30.1889,-90.1683,-9999.0,1.944,1111122 
LUMCON,ioos:station:LUMCON:103:1,2010-12-11T15:00:00Z,30.1889,-90.1683,-9999.0,1.98,1111122 